Location: *
(38.3914°N, 75.0697°W)
Time: 22:47:03
(UTC+00:00)

X-37B - Visible Passes

Search period start: 26 February 2021 00:00
Search period end: 08 March 2021 00:00
Orbit: 383 x 391 km, 45.0° (Epoch: 10 February)

Date Brightness Start Highest point End Pass type
(mag) Time Alt. Az. Time Alt. Az. Time Alt. Az.
26 Feb 2.1 10:16:57 22° NNW 10:18:10 29° NNE 10:20:59 10° ENE visible
27 Feb 3.4 09:21:12 17° NE 09:21:12 17° NE 09:22:18 10° ENE visible
27 Feb 0.9 10:53:29 10° WNW 10:56:38 62° NNE 10:59:46 10° ESE visible
28 Feb 1.5 09:57:48 37° N 09:58:12 39° NNE 10:01:12 10° E visible
01 Mar 4.1 09:02:11 12° ENE 09:02:11 12° ENE 09:02:31 10° ENE visible
01 Mar 0.5 10:34:28 20° WNW 10:36:32 72° SSW 10:39:41 10° SE visible
02 Mar 1.7 09:38:57 44° E 09:38:57 44° E 09:41:18 10° ESE visible
03 Mar 1.3 10:15:50 33° WSW 10:16:21 36° SW 10:19:17 10° SE visible
04 Mar 3.4 09:20:33 15° SE 09:20:33 15° SE 09:21:12 10° SE visible
05 Mar 3.0 09:57:44 13° S 09:57:44 13° S 09:58:24 10° S visible
